DW8816 Weather Reports


time (UTC)temp
C
wind
direction
speed
KPH
gust
KPH
rain 1hr
cm
rain 24hr
cm
rain mn
cm
humidity
%
barometer
mb
20260831230005 15 313 0.0 4.8 0.00 0.30 0.00 83 1017.9
20260831224004 15 312 0.0 4.8 0.00 0.30 0.30 83 1018.0
20260831223003 15 312 1.6 4.8 0.00 0.30 0.30 83 1017.8
20260831222003 15 313 1.6 6.4 0.00 0.30 0.30 83 1017.7
20260831221003 15 312 1.6 8.0 0.00 0.30 0.30 83 1017.7
20260831215003 15 313 1.6 3.2 0.00 0.30 0.30 82 1017.7
20260831214004 15 312 1.6 4.8 0.00 0.30 0.30 81 1017.5
20260831213003 15 312 1.6 6.4 0.00 0.30 0.30 81 1017.5
20260831212003 15 312 1.6 4.8 0.00 0.30 0.30 80 1017.3
20260831211004 16 314 3.2 8.0 0.00 0.30 0.30 80 1017.2
20260831210003 16 312 3.2 9.7 0.00 0.30 0.30 80 1017.1
20260831205003 16 312 3.2 12.9 0.00 0.30 0.30 80 1017.1
20260831204004 16 314 3.2 8.0 0.00 0.30 0.30 80 1016.9
20260831201004 16 310 1.6 4.8 0.00 0.30 0.30 81 1016.6
20260831200003 16 314 3.2 6.4 0.00 0.30 0.30 80 1016.4
20260831195003 16 327 1.6 9.7 0.00 0.30 0.30 80 1016.3
20260831194004 16 332 0.0 8.0 0.00 0.30 0.30 81 1016.1
20260831193003 17 0 0.0 0.0 0.00 0.30 0.30 80 1016.0
20260831192003 17 307 1.6 6.4 0.00 0.30 0.30 79 1015.9
20260831191003 17 306 1.6 6.4 0.00 0.30 0.30 79 1015.8
20260831190004 17 309 3.2 8.0 0.00 0.30 0.30 78 1015.7
20260831185004 18 312 4.8 12.9 0.00 0.30 0.30 77 1015.6
20260831184003 18 322 3.2 16.1 0.00 0.30 0.30 78 1015.4
20260831183004 18 332 4.8 14.5 0.00 0.30 0.30 78 1015.2
20260831182004 18 323 3.2 16.1 0.00 0.30 0.30 78 1015.1
20260831181003 18 308 3.2 14.5 0.00 0.30 0.30 78 1014.8
20260831175004 18 267 3.2 11.3 0.00 0.30 0.30 81 1014.5
20260831174003 18 277 3.2 14.5 0.00 0.30 0.30 81 1014.4
20260831172003 18 0 0.0 4.8 0.00 0.30 0.30 89 1014.1
20260831171003 18 0 0.0 0.0 0.00 0.30 0.30 90 1014.1
20260831170003 18 0 0.0 0.0 0.00 0.30 0.30 91 1014.0
20260831164003 17 338 1.6 3.2 0.00 0.30 0.30 90 1013.7
20260831163005 17 339 1.6 6.4 0.00 0.30 0.30 90 1013.7
20260831161003 17 339 3.2 4.8 0.10 0.30 0.30 91 1013.5
20260831160003 17 339 3.2 6.4 0.10 0.30 0.30 91 1013.5
20260831153003 17 336 6.4 14.5 0.10 0.30 0.30 89 1013.4
20260831152005 17 326 8.0 20.9 0.05 0.25 0.25 88 1013.5
20260831151004 18 328 4.8 20.9 0.10 0.20 0.20 89 1013.3
20260831150004 17 308 3.2 8.0 0.10 0.20 0.20 90 1013.2
20260831144003 17 346 3.2 9.7 0.10 0.20 0.20 91 1012.9
20260831143003 17 348 4.8 9.7 0.10 0.20 0.20 90 1012.8
20260831142003 17 342 11.3 14.5 0.10 0.20 0.20 87 1012.8
20260831141004 19 329 9.7 30.6 0.00 0.10 0.10 80 1012.8
20260831140004 22 277 8.0 19.3 0.00 0.10 0.10 66 1012.2
20260831135004 22 297 6.4 20.9 0.00 0.10 0.10 65 1012.1
20260831134004 22 276 6.4 14.5 0.00 0.10 0.10 68 1012.0
20260831133004 22 264 6.4 22.5 0.00 0.10 0.10 71 1012.1
20260831132003 21 278 6.4 17.7 0.00 0.10 0.10 70 1011.8
20260831131004 22 284 8.0 19.3 0.00 0.10 0.10 68 1011.7
20260831130004 22 276 8.0 22.5 0.00 0.10 0.10 67 1011.5
20260831125003 22 273 8.0 19.3 0.00 0.10 0.10 68 1011.5
20260831124004 21 279 8.0 20.9 0.00 0.10 0.10 68 1011.3
20260831123005 21 324 8.0 24.1 0.00 0.10 0.10 70 1011.2
20260831122004 20 300 9.7 22.5 0.00 0.10 0.10 72 1011.2
20260831121003 20 324 11.3 24.1 0.00 0.10 0.10 72 1011.0
20260831120003 20 316 8.0 24.1 0.00 0.10 0.10 71 1010.9
20260831114003 20 314 8.0 24.1 0.00 0.10 0.10 72 1010.6
20260831113004 20 295 8.0 17.7 0.00 0.10 0.10 71 1010.5
20260831112004 20 306 8.0 29.0 0.00 0.10 0.10 71 1010.3
20260831111004 20 314 8.0 22.5 0.00 0.10 0.10 72 1010.2
20260831110004 20 303 8.0 27.4 0.00 0.10 0.10 73 1010.1
20260831105003 21 272 8.0 24.1 0.00 0.10 0.10 71 1009.9
20260831104004 20 276 6.4 19.3 0.00 0.10 0.10 74 1009.7
20260831103005 19 286 8.0 19.3 0.00 0.10 0.10 75 1009.7
20260831102004 18 296 8.0 20.9 0.00 0.10 0.10 76 1009.7
20260831101003 18 316 8.0 24.1 0.00 0.10 0.10 77 1009.6
20260831100004 18 310 6.4 22.5 0.03 0.10 0.10 77 1009.6
20260831095003 18 290 6.4 20.9 0.03 0.10 0.10 78 1009.4
20260831094003 18 310 8.0 22.5 0.03 0.10 0.10 80 1009.3
20260831092004 17 298 6.4 20.9 0.03 0.10 0.10 80 1009.0
20260831085004 17 285 4.8 12.9 0.00 0.08 0.08 84 1008.4
20260831084004 17 274 6.4 20.9 0.00 0.08 0.08 85 1008.3
20260831083004 17 302 4.8 14.5 0.00 0.08 0.08 84 1008.1
20260831082004 17 279 8.0 16.1 0.00 0.08 0.08 84 1008.0
20260831081003 16 270 9.7 19.3 0.00 0.08 0.08 85 1007.8
20260831080004 16 260 8.0 25.7 0.00 0.08 0.08 86 1007.6
20260831075003 16 266 8.0 19.3 0.00 0.08 0.08 87 1007.6
20260831074005 16 269 8.0 19.3 0.00 0.08 0.08 88 1007.5
20260831073004 15 265 8.0 20.9 0.00 0.08 0.08 89 1007.3
20260831072004 15 271 8.0 20.9 0.00 0.08 0.08 90 1007.2
20260831071003 15 270 8.0 19.3 0.00 0.08 0.08 92 1007.0
20260831065003 14 262 4.8 17.7 0.00 0.08 0.08 92 1006.8
20260831064003 13 267 4.8 12.9 0.00 0.08 0.08 93 1006.7
20260831063004 13 264 4.8 19.3 0.00 0.08 0.08 93 1006.5
20260831062003 13 267 4.8 14.5 0.00 0.08 0.08 94 1006.4
20260831061004 13 266 4.8 12.9 0.00 0.08 0.08 94 1006.3
20260831060004 13 262 3.2 12.9 0.00 0.08 0.08 94 1006.1
20260831055004 13 265 3.2 11.3 0.00 0.08 0.08 93 1006.0
20260831054004 13 262 4.8 14.5 0.00 0.08 0.08 93 1005.7
20260831053005 13 260 4.8 22.5 0.00 0.08 0.08 93 1005.6
20260831052004 13 257 4.8 16.1 0.00 0.08 0.08 93 1005.5
20260831051003 13 264 8.0 17.7 0.00 0.08 0.08 93 1005.3
20260831050004 13 265 8.0 19.3 0.00 0.08 0.08 93 1005.2
20260831045004 13 258 6.4 17.7 0.00 0.08 0.08 93 1005.1
20260831044004 13 260 6.4 19.3 0.00 0.08 0.08 93 1005.0
20260831043003 13 262 4.8 14.5 0.00 0.08 0.08 93 1004.9
20260831042004 13 258 4.8 19.3 0.00 0.08 0.08 93 1004.8
20260831041003 13 261 4.8 14.5 0.00 0.08 0.08 93 1004.8
20260831040004 13 259 4.8 14.5 0.00 0.08 0.08 93 1004.8
20260831035003 13 257 3.2 14.5 0.00 0.08 0.08 93 1004.6
20260831034003 13 256 6.4 12.9 0.00 0.08 0.08 92 1004.6
20260831033003 13 266 6.4 16.1 0.00 0.08 0.08 93 1004.5
20260831025003 14 260 6.4 22.5 0.00 0.08 0.08 93 1004.2
20260831024004 14 260 8.0 20.9 0.05 0.08 0.08 93 1004.1
20260831023004 15 264 8.0 19.3 0.05 0.08 0.08 93 1003.9
20260831022004 15 258 6.4 19.3 0.05 0.08 0.08 93 1004.0
20260831021004 15 251 6.4 20.9 0.05 0.08 0.08 93 1003.7
20260831015004 15 249 3.2 12.9 0.05 0.08 0.08 93 1003.6
20260831013004 15 229 4.8 11.3 0.03 0.03 0.03 93 1003.7
20260831012003 15 211 3.2 16.1 0.03 0.03 0.03 92 1003.7
20260831011004 15 211 3.2 12.9 0.03 0.03 0.03 92 1003.6
20260831010004 15 193 1.6 8.0 0.03 0.03 0.03 92 1003.6
20260831005004 15 203 1.6 8.0 0.03 0.03 0.03 92 1003.8
20260831004004 15 204 3.2 14.5 0.00 0.00 0.00 92 1003.9
20260831002003 15 179 3.2 8.0 0.00 0.00 0.00 92 1004.1
20260831001003 15 194 1.6 11.3 0.00 0.00 0.00 92 1004.1
20260831000003 15 196 1.6 11.3 0.00 0.00 0.00 92 1004.2
20260830235004 15 212 1.6 9.7 0.00 0.00 0.00 92 1004.4
20260830234004 15 211 1.6 9.7 0.00 0.00 0.00 92 1004.5
20260830233005 15 200 1.6 8.0 0.00 0.00 0.00 92 1004.6
20260830232004 15 168 1.6 6.4 0.00 0.00 0.00 92 1004.7